Weather in Nisko

Poland     50°31′10″N   22°08′25″E
temp.,
°C
wind,
m/s
gust,
m/s
humid.,
%
clouds,
%
prec.,
mm/h
press.,
hPa
HPBL,
m
14 may, fri
fri1423:00+11sse310926 0.0 1001223
02:00+9sse389650 0.0 1001180
05:00+9s389791 0.0 1001194
08:00+14ssw5681100 0.0 1001613
11:00+14sw478095 0.0 1002637
14:00+15sw678288 0.3 1003728
17:00+14sw5988100 0.3 1003639
20:00+12w61294100 2.0 1005598
15 may, sat
sat1523:00+12w51194100 1.1 1007549
02:00+11wnw5109299 1.1 1008486
05:00+9w499456 0.0 1009320
08:00+12w477656 0.0 1010585
11:00+16w565794 0.0 10101614
14:00+18w235396 0.1 10101494
17:00+17s346291 0.2 10101059
20:00+13sse338340 0.2 100940
16 may, sun
sun1623:00+11se378999 0.0 1009138
02:00+10se3794100 0.0 1008151
05:00+10se489295 0.0 1007135
08:00+14sse5875100 0.0 1007415
11:00+17sw5768100 1.5 10071140
14:00+13s4992100 3.8 1007623
17:00+15wsw6882100 1.0 1006765
20:00+11wnw3694100 1.2 1007318
17 may, mon
mon1723:00+10w359563 0.0 1008158
02:00+8sw22972 0.0 100930
05:00+7sw11943 0.0 100911
08:00+12ssw23780 0.0 1010353
11:00+18ssw34557 0.0 10081424
14:00+19ssw4454100 0.1 10071702
17:00+14w6885100 2.8 1008501
20:00+12ssw389482 4.6 1008297
18 may, tue
tue1823:00+10sw239695 0.0 100861
02:00+8w12954 0.0 100818
05:00+7w349534 0.0 101088
08:00+11w3485100 0.0 1010377
11:00+16wnw3459100 0.0 10101522
14:00+17wnw5551100 0.1 10091983
17:00+16wnw555486 0.0 10101467
20:00+12nw347769 0.0 101156